Location: Puketoi
(40.5833°S, 176.0167°E)
Time: 23:59:46
(UTC+00:00)

COSMOS 2455 - Pass Details

Date: 06 October 2023
Orbit: 902 x 907 km, 67.1° (Epoch: 03 December)

Event Time Altitude Azimuth Distance (km) Brightness Sun altitude
Rises 16:49:52 0° 202° (SSW) 3,561 5.9 -10.5°
Reaches altitude 10° 16:52:50 10° 189° (S) 2,614 5.3 -9.9°
Maximum altitude 16:57:52 26° 133° (SE) 1,708 5.1 -9.0°
Drops below altitude 10° 17:02:51 10° 77° (ENE) 2,594 6.4 -8.1°
Sets 17:05:46 0° 64° (ENE) 3,528 6.8 -7.5°
